Weather History for Thedford, NE

Change the Weather History Date:

Sunday, September 8, 2013

  Actual Average (KLBF) Record (KLBF)
Temperature  
Mean Temperature 84 °F 66 °F  
Max Temperature 100 °F 81 °F 101 °F (2013)
Min Temperature 68 °F 50 °F 35 °F (2012)
Degree Days  
Heating Degree Days 0 3  
Month to date heating degree days 18  
Since 1 July heating degree days 38  
Cooling Degree Days 19 3  
Month to date cooling degree days 34  
Year to date cooling degree days 729  
Growing Degree Days 34 (Base 50)    
Moisture  
Dew Point 61 °F    
Average Humidity 59    
Maximum Humidity 92    
Minimum Humidity 14    
Precipitation  
Precipitation 0.00 in 0.05 in 2.38 in (1877)
Month to date precipitation 0.39  
Year to date precipitation 16.61  
Snow  
Snow 0.00 in 0.00 in 0.00 in (2002)
Month to date snowfall 0.0  
Since 1 July snowfall 0.0  
Since 1 September snowfall 0.0  
Snow Depth -    
Sea Level Pressure  
Sea Level Pressure 29.91 in    
Wind  
Wind Speed 7 mph (SSE)    
Max Wind Speed 16 mph    
Max Gust Speed 22 mph    
Visibility 7 miles    
Events Fog    
T = Trace of Precipitation, MM = Missing Value Source: NWS Daily Summary

Daily Weather History Graph

Daily Weather History Graph

Search for Another Location

Airport:

Trip Planner

Search our weather history database for the weather conditions in past years. The results will help you decide how hot, cold, wet, or windy it might be!

Date:

Astronomy

Sep. 08, 2013 Rise Set
Actual Time 7:15 AM CDT 8:03 PM CDT
Civil Twilight 6:47 AM CDT 8:31 PM CDT
Nautical Twilight 6:13 AM CDT 9:05 PM CDT
Astronomical Twilight 5:38 AM CDT 9:39 PM CDT
Moon 10:39 AM CDT (9/8) 9:35 PM CDT (9/8)
Length of Visible Light 13h 44m
Length of Day
12h 48m
Waxing Crescent, 11% of the Moon is Illuminated
Sep 8
Waxing Crescent
Sep 12
First Quarter
Sep 19
Full
Sep 26
Last Quarter
Oct 4
New

Hourly Weather History & Observations

Time (CDT) Temp. Heat Index Dew Point Humidity Pressure Visibility Wind Dir Wind Speed Gust Speed Precip Events Conditions
12:15 AM 72.7 °F - 68.9 °F 88% 30.01 in 7.0 mi East 8.1 mph - N/A   Clear
12:35 AM 72.5 °F - 68.9 °F 88% 30.01 in 5.0 mi ESE 8.1 mph - N/A   Clear
12:55 AM 72.1 °F - 69.1 °F 90% 30.01 in 5.0 mi ESE 8.1 mph - N/A   Scattered Clouds
1:15 AM 72.1 °F - 69.3 °F 91% 30.01 in 5.0 mi ESE 9.2 mph - N/A   Mostly Cloudy
1:35 AM 72.7 °F - 69.4 °F 90% 30.02 in 5.0 mi ESE 9.2 mph - N/A   Mostly Cloudy
1:55 AM 72.1 °F - 68.9 °F 89% 30.01 in 5.0 mi SE 8.1 mph - N/A   Scattered Clouds
2:15 AM 71.6 °F - 68.4 °F 89% 30.01 in 5.0 mi SE 9.2 mph - N/A   Scattered Clouds
2:35 AM 71.2 °F - 68.0 °F 89% 30.00 in 4.0 mi ESE 9.2 mph - N/A   Scattered Clouds
2:55 AM 71.6 °F - 68.0 °F 88% 29.99 in 4.0 mi SE 9.2 mph - N/A   Mostly Cloudy
3:15 AM 70.9 °F - 67.5 °F 89% 29.99 in 3.0 mi SE 9.2 mph - N/A   Mostly Cloudy
3:35 AM 70.7 °F - 67.6 °F 90% 29.99 in 3.0 mi ESE 4.6 mph - N/A   Mostly Cloudy
3:55 AM 70.9 °F - 67.6 °F 89% 29.98 in 3.0 mi SE 9.2 mph - N/A   Overcast
4:15 AM 70.7 °F - 67.3 °F 89% 29.98 in 3.0 mi SE 10.4 mph - N/A   Overcast
4:35 AM 70.3 °F - 67.1 °F 89% 29.98 in 3.0 mi SE 8.1 mph - N/A   Overcast
4:55 AM 69.6 °F - 66.6 °F 90% 29.97 in 2.5 mi SE 4.6 mph - N/A   Overcast
5:15 AM 68.9 °F - 66.2 °F 91% 29.97 in 2.0 mi Calm Calm - N/A   Overcast
5:35 AM 68.5 °F - 66.2 °F 92% 29.97 in 1.5 mi Calm Calm - N/A   Overcast
5:55 AM 68.9 °F - 66.2 °F 91% 29.96 in 1.8 mi SSE 5.8 mph - N/A   Overcast
6:15 AM 68.2 °F - 65.7 °F 92% 29.96 in 2.0 mi Calm Calm - N/A   Overcast
6:35 AM 68.2 °F - 65.7 °F 92% 29.97 in 1.5 mi SSE 4.6 mph - N/A   Overcast
6:55 AM 68.2 °F - 65.8 °F 92% 29.97 in 1.5 mi Calm Calm - N/A   Overcast
7:15 AM 68.2 °F - 65.8 °F 92% 29.97 in 1.2 mi South 5.8 mph - N/A   Overcast
7:35 AM 68.0 °F - 65.7 °F 92% 29.97 in 0.5 mi Calm Calm - N/A Fog Fog
7:55 AM 68.0 °F - 65.7 °F 92% 29.98 in 0.8 mi Calm Calm - N/A   Overcast
8:15 AM 68.2 °F - 65.8 °F 92% 29.98 in 0.5 mi Calm Calm - N/A Fog Fog
8:35 AM 68.4 °F - 66.0 °F 92% 29.98 in 1.2 mi Calm Calm - N/A   Overcast
8:55 AM 68.9 °F - 65.8 °F 90% 29.98 in 1.8 mi NE 3.5 mph - N/A   Overcast
9:15 AM 69.3 °F - 65.5 °F 88% 29.97 in 2.0 mi NE 4.6 mph - N/A   Overcast
9:35 AM 70.7 °F - 65.5 °F 83% 29.97 in 3.0 mi ESE 4.6 mph - N/A   Haze
9:55 AM 72.0 °F - 65.7 °F 80% 29.99 in 3.0 mi NW 6.9 mph - N/A   Haze
10:15 AM 72.3 °F - 65.8 °F 80% 29.97 in 4.0 mi Calm Calm - N/A   Haze
10:35 AM 74.7 °F - 65.3 °F 73% 29.97 in 5.0 mi SSE 4.6 mph - N/A   Haze
10:55 AM 76.8 °F - 65.1 °F 67% 29.96 in 7.0 mi SSE 3.5 mph - N/A   Clear
11:15 AM 79.0 °F - 65.5 °F 63% 29.96 in 7.0 mi ESE 5.8 mph - N/A   Clear
11:35 AM 80.4 °F 82.2 °F 64.9 °F 59% 29.96 in 10.0 mi South 3.5 mph - N/A   Clear
11:55 AM 81.9 °F 83.5 °F 64.8 °F 56% 29.95 in 10.0 mi ESE 3.5 mph - N/A   Clear
12:15 PM 83.7 °F 84.9 °F 63.5 °F 51% 29.94 in 10.0 mi SSE 4.6 mph - N/A   Clear
12:35 PM 85.5 °F 85.9 °F 62.1 °F 45% 29.93 in 10.0 mi South 5.8 mph - N/A   Clear
12:55 PM 87.6 °F 88.5 °F 63.5 °F 44% 29.93 in 10.0 mi SE 8.1 mph - N/A   Clear
1:15 PM 89.2 °F 89.9 °F 63.0 °F 41% 29.92 in 10.0 mi SE 9.2 mph - N/A   Clear
1:35 PM 89.6 °F 90.4 °F 63.1 °F 41% 29.91 in 10.0 mi SE 9.2 mph - N/A   Clear
1:55 PM 91.4 °F 92.1 °F 62.6 °F 38% 29.91 in 10.0 mi ESE 5.8 mph - N/A   Clear
2:15 PM 93.2 °F 93.3 °F 60.8 °F 34% 29.90 in 10.0 mi SE 8.1 mph - N/A   Clear
2:35 PM 95.2 °F 94.7 °F 59.0 °F 30% 29.89 in 10.0 mi SSE 6.9 mph - N/A   Clear
2:55 PM 96.1 °F 95.2 °F 58.3 °F 28% 29.88 in 10.0 mi SE 9.2 mph - N/A   Clear
3:15 PM 97.0 °F 95.0 °F 54.7 °F 24% 29.87 in 10.0 mi South 16.1 mph 21.9 mph N/A   Scattered Clouds
3:35 PM 99.7 °F - 43.3 °F 15% 29.86 in 10.0 mi South 12.7 mph 18.4 mph N/A   Clear
3:55 PM 99.7 °F - 44.4 °F 15% 29.85 in 10.0 mi South 11.5 mph 18.4 mph N/A   Clear
4:15 PM 99.9 °F - 45.5 °F 16% 29.84 in 10.0 mi SSW 10.4 mph 16.1 mph N/A   Scattered Clouds
4:35 PM 100.6 °F - 44.6 °F 15% 29.83 in 10.0 mi South 13.8 mph 20.7 mph N/A   Scattered Clouds
4:55 PM 99.7 °F - 43.5 °F 15% 29.83 in 10.0 mi South 9.2 mph - N/A   Scattered Clouds
5:15 PM 100.0 °F - 42.8 °F 14% 29.82 in 10.0 mi South 11.5 mph - N/A   Scattered Clouds
5:35 PM 99.9 °F - 44.6 °F 15% 29.81 in 10.0 mi South 12.7 mph 17.3 mph N/A   Scattered Clouds
5:55 PM 98.1 °F - 49.8 °F 19% 29.80 in 10.0 mi SSE 15.0 mph 20.7 mph N/A   Clear
6:15 PM 97.5 °F - 50.5 °F 20% 29.80 in 10.0 mi SSE 12.7 mph 19.6 mph N/A   Clear
6:35 PM 95.5 °F - 51.8 °F 23% 29.80 in 10.0 mi SSE 11.5 mph - N/A   Scattered Clouds
6:55 PM 93.2 °F - 52.7 °F 25% 29.80 in 10.0 mi SSE 12.7 mph - N/A   Clear
7:15 PM 93.0 °F 90.6 °F 53.1 °F 26% 29.80 in 10.0 mi SSE 12.7 mph - N/A   Clear
7:35 PM 91.0 °F 88.7 °F 53.4 °F 28% 29.79 in 10.0 mi SSE 10.4 mph - N/A   Clear
7:55 PM 89.2 °F 87.1 °F 53.8 °F 30% 29.79 in 10.0 mi SSE 10.4 mph - N/A   Clear
8:15 PM 88.2 °F 86.1 °F 53.8 °F 31% 29.79 in 10.0 mi SSE 10.4 mph - N/A   Clear
8:35 PM 86.2 °F 84.5 °F 54.5 °F 34% 29.79 in 10.0 mi SSE 9.2 mph - N/A   Clear
8:55 PM 82.6 °F 82.0 °F 55.9 °F 40% 29.80 in 10.0 mi SSE 9.2 mph - N/A   Clear
9:15 PM 82.4 °F 81.9 °F 56.7 °F 41% 29.80 in 10.0 mi SSE 9.2 mph - N/A   Clear
9:35 PM 80.8 °F 81.1 °F 58.3 °F 46% 29.80 in 10.0 mi SSE 10.4 mph - N/A   Clear
9:55 PM 80.4 °F 81.1 °F 59.5 °F 49% 29.80 in 10.0 mi SSE 9.2 mph - N/A   Clear
10:15 PM 79.2 °F - 60.1 °F 52% 29.79 in 10.0 mi SSE 10.4 mph - N/A   Clear
10:35 PM 78.6 °F - 60.3 °F 53% 29.80 in 10.0 mi SSE 10.4 mph - N/A   Clear
10:55 PM 79.5 °F - 57.6 °F 47% 29.80 in 10.0 mi SSE 11.5 mph - N/A   Clear
11:15 PM 81.3 °F 80.7 °F 53.8 °F 38% 29.80 in 10.0 mi South 11.5 mph 17.3 mph N/A   Clear
11:35 PM 81.5 °F - 50.9 °F 34% 29.81 in 10.0 mi South 10.4 mph - N/A   Clear
11:55 PM 80.8 °F - 50.2 °F 34% 29.81 in 10.0 mi South 12.7 mph - N/A   Clear